CZ-6A DEB

Satellite information

Favourite Embed

Satellite Type and Status

DEBRISIN ORBIT

Key statistics

Satellite CZ-6A DEB at a glance.

Uptime

969

Days in orbit

Revolutions

≈ 14.3

Per day

Orbit

SSO

Sun Synchronous Orbit

Inclination

98.9

Latest

Satellite identification and parameters

Extended collection of information and parameters for CZ-6A DEB.

Object identification

Identified? True

Debris? True

Object name: CZ-6A DEB

International designator: 2022-151AHV

Object number (NORAD): 57578

Object ID (CCSDS): 57578

Country: PEOPLES REPUBLIC OF CHINA (PRC)

Current information (Y/N): Y

RCS size: SMALL

Orbital parameters

Period: 100.651 minutes

Inclination: 98.8799 deg

SMA: 7167.575 km

Apoapsis: 822.118 km

Periapsis: 756.761 km

RAAN: 223.6582 deg

Eccentricy: 0.0045592

Argument of periapsis: 280.7725 deg

Mean anomaly: 78.8326 deg

Mean motion: 14.30686365 rev/day

Mean motion (dot): 0.00002512 rev/day2

B* drag term: 0.00096728 1/REarth

Two-line elements (TLE)

Creation date: July 3, 2025, 3:40 a.m.

Reference frame: TEME

Reference center: EARTH

Epoch: July 2, 2025, 8:14 p.m. UTC

TLE line 0: 0 CZ-6A DEB

TLE line 1: 1 57578U 22151AHV 25183.84315639 .00002512 00000-0 96728-3 0 9996

TLE line 2: 2 57578 98.8799 223.6582 0045592 280.7725 78.8326 14.30686365114145

Live tracking on map

Real-time ground track for satellite CZ-6A DEB.

In-orbit conjunctions

A list of the most updated potential collisions computed for object CZ-6A DEB.

Target Orbit TCA Probability of collision Miss distance Type
DMSP 5D-2 F8 DEB SSO 2025-06-22 03:42:51 0.0001220119 135.0 (m) DEBRIS
FENGYUN 1C DEB SSO 2024-07-06 05:39:13 0.0001418294 251.0 (m) DEBRIS

Associated space launch

Chinese satellite reported for atmospheric/ocean/environmental/spatial parameter research purposes, details TBD.

CZ-6A DEB was lifted into orbit during the mission ‘Long March 6A | Yunhai 3’, on board a Long March 6A space rocket.

The launch took place on Nov. 11, 2022, 10:52 p.m. from Launch Complex 9A.

For more information about the launch, click the button.

Launch to space Long March 6A | Yunhai 3
Long March 6A | Yunhai 3

Agency: N/A

Status: Launch Successful

Launch date: Nov. 11, 2022, 10:52 p.m. UTC

Rocket: Long March 6A

Launch pad: Launch Complex 9A

Location: Taiyuan Satellite Launch Center, People's Republic of China

...

Latest news about this satellite

There are no fresh news available about this satellite. Check back as we update our databases every day.


Newsletter sign-up

Weekly statistics, charts and insights to help you stay on top of the space industry.